This demonstration page uses our WeatherBlox Daily Observations layout. Learn more.

40.92945, -100.16068

Hourly Observations for January 12, 2020

Temp ( °F °C ) Dew Point ( °F °C ) Humidity (%) Winds ( mph kmh ) Pressure ( in mb ) Visibility ( mi km ) Precip ( " mm )
12:15 am 00:15 Clear 19 -7.2 10 -12 69 69 SE 7 11 30.11 1020 10 16.0934 0 0
12:35 am 00:35 Clear 19 -7.1 11 -11.8 69 69 SSE 9 15 30.1 1019 10 16.0934 0 0
12:55 am 00:55 Partly Cloudy 19 -7 11 -11.7 69 69 SSE 10 17 30.09 1019 10 16.0934 0 0
1:15 am 01:15 Mostly Cloudy 20 -6.6 12 -11.2 70 70 S 9 15 30.08 1019 10 16.0934 0 0
1:35 am 01:35 Mostly Cloudy 21 -6 11 -11.6 65 65 SSE 10 17 30.07 1018 10 16.0934 0 0
1:55 am 01:55 Mostly Cloudy 21 -5.9 11 -11.8 63 63 S 9 15 30.06 1018 10 16.0934 0 0
2:15 am 02:15 Partly Cloudy 22 -5.8 10 -12 62 62 SSW 3 6 30.08 1018 10 16.0934 0 0
2:35 am 02:35 Mostly Cloudy 22 -5.6 11 -11.7 63 63 S 7 11 30.06 1018 10 16.0934 0 0
2:55 am 02:55 Cloudy 22 -5.5 12 -11.3 64 64 S 8 13 30.06 1018 10 16.0934 0 0
3:15 am 03:15 Cloudy 23 -5.2 12 -11 64 64 S 7 11 30.06 1018 10 16.0934 0 0
3:35 am 03:35 Cloudy 23 -5.1 13 -10.6 66 66 S 6 9 30.06 1018 10 16.0934 0 0
3:55 am 03:55 Cloudy 23 -5 14 -10.2 67 67 S 6 9 30.05 1018 10 16.0934 0 0
4:15 am 04:15 Cloudy 23 -5 14 -9.8 69 69 SSE 8 13 30.05 1018 10 16.0934 0 0
4:35 am 04:35 Partly Cloudy 23 -5.1 15 -9.4 72 72 SSE 6 9 30.05 1018 10 16.0934 0 0
4:55 am 04:55 Partly Cloudy 23 -5.1 15 -9.2 73 73 S 7 11 30.06 1018 10 16.0934 0 0
5:15 am 05:15 Partly Cloudy 22 -5.3 15 -9.2 74 74 S 5 7 30.07 1018 10 16.0934 0 0
5:35 am 05:35 Partly Cloudy 22 -5.5 16 -8.8 78 78 S 6 9 30.07 1018 10 16.0934 0 0
5:55 am 05:55 Mostly Cloudy 22 -5.4 17 -8.5 79 79 SSE 6 9 30.07 1018 10 16.0934 0 0
6:15 am 06:15 Cloudy 22 -5.3 17 -8.2 80 80 SE 8 13 30.06 1018 10 16.0934 0 0
6:35 am 06:35 Cloudy 23 -5.2 18 -8 81 81 SSE 8 13 30.08 1019 10 16.0934 0 0
6:55 am 06:55 Cloudy 23 -5.1 18 -7.7 82 82 S 10 17 30.07 1018 10 16.0934 0 0
7:15 am 07:15 Cloudy with Light Snow 23 -5.1 18 -7.6 83 83 SSE 7 11 30.07 1018 10 16.0934 0 0
7:35 am 07:35 Cloudy with Light Snow 22 -5.3 19 -7.2 87 87 SSE 6 9 30.07 1018 5 8.0467 0 0
7:55 am 07:55 Cloudy 23 -5.1 19 -7.5 83 83 SSE 7 11 30.07 1018 10 16.0934 0 0
8:15 am 08:15 Cloudy 23 -5 19 -7.3 84 84 SSE 13 20 30.06 1018 10 16.0934 0 0
8:35 am 08:35 Cloudy 23 -5 19 -7.4 83 83 SSE 8 13 30.07 1018 10 16.0934 0 0
8:55 am 08:55 Cloudy 23 -4.8 19 -7 85 85 S 8 13 30.07 1018 10 16.0934 0 0
9:15 am 09:15 Cloudy 23 -4.8 19 -7.2 84 84 S 3 6 30.08 1018 10 16.0934 0 0
9:35 am 09:35 Cloudy 24 -4.7 19 -7.3 82 82 Calm 30.08 1019 10 16.0934 0 0
9:55 am 09:55 Cloudy 24 -4.5 19 -7.1 82 82 Calm 30.09 1019 10 16.0934 0 0
10:15 am 10:15 Mostly Cloudy 24 -4.5 20 -6.6 85 85 NW 3 6 30.09 1019 10 16.0934 0 0
10:35 am 10:35 Partly Cloudy 24 -4.5 20 -6.7 85 85 Calm 30.09 1019 10 16.0934 0 0
10:55 am 10:55 Partly Cloudy 25 -4 20 -6.6 82 82 SSE 3 6 30.07 1018 10 16.0934 0 0
11:15 am 11:15 Partly Cloudy 26 -3.5 20 -6.8 78 78 SSE 6 9 30.06 1018 10 16.0934 0 0
11:35 am 11:35 Partly Cloudy 27 -2.9 20 -6.5 77 77 SSE 6 9 30.06 1018 10 16.0934 0 0
11:55 am 11:55 Mostly Cloudy 27 -2.9 20 -6.5 77 77 S 6 9 30.05 1017 10 16.0934 0 0
12:15 pm 12:15 Mostly Cloudy 28 -2.5 21 -6.2 76 76 S 7 11 30.04 1017 10 16.0934 0 0
12:35 pm 12:35 Partly Cloudy 28 -2.5 21 -6.2 76 76 SSE 6 9 30.02 1017 10 16.0934 0 0
12:55 pm 12:55 Sunny 28 -2 21 -5.9 75 75 SSE 5 7 30.01 1016 10 16.0934 0 0
1:15 pm 13:15 Partly Cloudy 28 -2 21 -6.1 74 74 WSW 3 6 30.01 1016 10 16.0934 0 0
1:35 pm 13:35 Cloudy 29 -1.6 21 -5.9 73 73 S 5 7 29.99 1016 10 16.0934 0 0
1:55 pm 13:55 Cloudy 30 -0.9 22 -5.3 72 72 SSW 7 11 29.98 1015 10 16.0934 0 0
2:15 pm 14:15 Cloudy 30 -1 22 -5.4 72 72 WSW 3 6 29.99 1015 10 16.0934 0 0
2:35 pm 14:35 Partly Cloudy 32 0 23 -5.2 68 68 Calm 29.96 1014 10 16.0934 0 0
2:55 pm 14:55 Sunny 32 -0.1 23 -5.2 69 69 S 6 9 29.97 1015 10 16.0934 0 0
3:15 pm 15:15 Sunny 33 0.3 24 -4.7 69 69 SSW 8 13 29.96 1015 10 16.0934 0 0
3:35 pm 15:35 Sunny 33 0.3 23 -4.9 68 68 SW 6 9 29.98 1015 10 16.0934 0 0
3:55 pm 15:55 Sunny 33 0.6 24 -4.6 68 68 SW 6 9 29.98 1015 10 16.0934 0 0
4:15 pm 16:15 Sunny 33 0.6 24 -4.6 68 68 SSW 5 7 29.98 1015 10 16.0934 0 0
4:35 pm 16:35 Sunny 33 0.7 24 -4.7 67 67 SSW 5 7 29.98 1015 10 16.0934 0 0
4:55 pm 16:55 Sunny 33 0.4 24 -4.4 71 71 S 6 9 29.98 1015 10 16.0934 0 0
5:15 pm 17:15 Sunny 31 -0.4 24 -4.2 76 76 S 6 9 30 1016 10 16.0934 0 0
5:35 pm 17:35 Clear 29 -1.5 24 -4.7 79 79 SSE 7 11 30.01 1016 10 16.0934 0 0
5:55 pm 17:55 Clear 28 -2.1 24 -4.7 83 83 S 8 13 30.03 1017 10 16.0934 0 0
6:15 pm 18:15 Clear 28 -2.5 23 -4.8 84 84 S 7 11 30.04 1017 10 16.0934 0 0
6:35 pm 18:35 Clear 27 -2.6 23 -5 84 84 SSE 6 9 30.04 1017 10 16.0934 0 0
6:55 pm 18:55 Clear 27 -2.9 22 -5.3 84 84 SSE 8 13 30.05 1017 10 16.0934 0 0
7:15 pm 19:15 Clear 27 -2.6 22 -5.3 82 82 S 7 11 30.05 1018 10 16.0934 0 0
7:35 pm 19:35 Clear 26 -3.4 22 -5.5 86 86 SSE 7 11 30.06 1018 10 16.0934 0 0
7:55 pm 19:55 Clear 26 -3.5 22 -5.6 86 86 SSE 6 9 30.06 1018 10 16.0934 0 0
8:15 pm 20:15 Clear 26 -3.4 22 -5.5 86 86 S 9 15 30.08 1019 10 16.0934 0 0
8:35 pm 20:35 Clear 26 -3.4 22 -5.5 86 86 S 8 13 30.07 1018 10 16.0934 0 0
8:55 pm 20:55 Clear 26 -3.5 22 -5.5 86 86 SSE 8 13 30.08 1019 10 16.0934 0 0
9:15 pm 21:15 Clear 25 -4.1 22 -5.8 88 88 S 5 7 30.1 1019 10 16.0934 0 0
9:35 pm 21:35 Clear 26 -3.6 22 -5.7 86 86 S 6 9 30.1 1019 10 16.0934 0 0
9:55 pm 21:55 Clear 26 -3.3 22 -5.6 84 84 S 7 11 30.1 1019 10 16.0934 0 0
10:15 pm 22:15 Clear 26 -3.3 22 -5.5 85 85 S 7 11 30.1 1019 10 16.0934 0 0
10:35 pm 22:35 Clear 26 -3.6 22 -5.6 86 86 S 7 11 30.1 1019 10 16.0934 0 0
10:55 pm 22:55 Clear 26 -3.5 22 -5.5 86 86 S 7 11 30.1 1019 10 16.0934 0 0
11:15 pm 23:15 Clear 26 -3.5 22 -5.5 86 86 S 9 15 30.11 1020 10 16.0934 0 0
11:35 pm 23:35 Clear 26 -3.3 22 -5.5 85 85 S 8 13 30.1 1019 10 16.0934 0 0
11:55 pm 23:55 Clear 27 -2.8 23 -5.2 84 84 S 8 13 30.11 1019 10 16.0934 0 0

Powered by AerisWeather